User: anonymous   Login
Location: Unspecified
(0.0000°N, 0.0000°E)
Time: 05:29:41
(UTC+00:00)
Language:

WGS F2 (USA 204) - Orbit

View from above orbital plane
View from above orbital plane
View from above satellite
View from above satellite

Ground track
Ground track

The orbit data is extracted from the following two-line orbital elements,

1 34713U 09017A   14298.92586820 0.00000000  00000-0  00000-0 0    02
2 34713   0.0060  67.7374 0003453 208.8633 151.1020  1.00270000    05
Epoch (UTC): 25 October 2014 22:13:15
Eccentricity: 0.0003453
inclination: 0.0060°
perigee height: 35772 km
apogee height: 35801 km
right ascension of ascending node: 67.7374°
argument of perigee: 208.8633°
revolutions per day: 1.00270000
mean anomaly at epoch: 151.1020°
orbit number at epoch: 0

The dashed part of the orbit path shows where the satellite is in the earth's shadow,  

DLR